www.pogodaiklimat.ru

Погода и климат >> Архив погоды >> Финляндия >> Кокар Богскар


ПОГОДА в Кокар Богскар

  • Прогноз погоды в Кокар Богскар
  • Монитор погоды в Кокар Богскар

АРХИВ ПОГОДЫ в Кокар Богскар

Время (UTC), дата Ветер
(напр.,м/с)
 
Видим.   Явления Облачность Т
(С)
Тd
(С)
f
(%)
Тe
(С)
Тes
(С)
Комфортность P
(гПа)
Po
(гПа)
Тmin
(С)
Tmax
(С)
R
(мм)
R24
(мм)
S
(см)
07 11.07 С 8-10
{11}
н/о н/о +13.2 +11.8 91 +10 +10 1008.0 1006.1
08 11.07 С 9-10
{11}
н/о н/о +13.3 +11.9 91 +10 +10 1008.2 1006.3
09 11.07 С 8-9
{10}
н/о н/о +13.5 +11.9 90 +11 +11 1008.5 1006.6
10 11.07 С 7 н/о н/о +13.5 +12.9 96 +11 +11 1008.5 1006.6
11 11.07 С 5-7
{10}
н/о н/о +13.9 +12.9 94 +12 +12 1008.6 1006.7
12 11.07 С 6-7
{8}
н/о н/о +14.2 +12.7 91 +12 +12 1008.7 1006.8
13 11.07 С 6 н/о н/о +14.3 +12.9 91 +12 +12 1009.0 1007.1
14 11.07 СЗ 7 н/о н/о +13.2 +12.7 97 +10 +10 1009.2 1007.2
15 11.07 С 6-7
{9}
н/о н/о +13.7 +13.2 97 +11 +11 1009.5 1007.6
16 11.07 С 4 н/о н/о +14.2 +13.3 94 +13 +13 1009.5 1007.6
17 11.07 В 1 н/о н/о +14.6 +13.3 92 +15 +15 1009.6 1007.7
18 11.07 штиль 0-1
{2}
н/о н/о +14.6 +13.3 92 +14 +14 1009.6 1007.7 +12.9 +15.0
19 11.07 С 1 н/о н/о +14.5 +13.2 92 +15 +15 1009.7 1007.8
20 11.07 С 2 н/о н/о +14.2 +13.8 97 +14 +14 1009.9 1008.0
21 11.07 С 4-4
{4}
н/о н/о +14.0 +13.5 97 +12 +12 1010.1 1008.2
22 11.07 С 6-8
{8}
н/о н/о +14.1 +12.0 87 +12 +12 1010.4 1008.5
23 11.07 С 6 н/о н/о +13.9 +11.8 87 +12 +12 1010.4 1008.5
00 12.07 С 5-6
{8}
н/о н/о +13.6 +12.0 90 +12 +12 1010.2 1008.3
01 12.07 С 5-7
{7}
н/о н/о +13.4 +12.0 91 +11 +11 1010.2 1008.3
02 12.07 С 6 н/о н/о +13.2 +11.8 91 +11 +11 1010.1 1008.2
03 12.07 С 7-8
{8}
н/о н/о +13.1 +11.4 89 +10 +10 1010.1 1008.2
04 12.07 С 6-7
{8}
н/о н/о +13.0 +10.7 86 +11 +11 1010.4 1008.5
05 12.07 С 6-6
{8}
н/о н/о +13.2 +11.0 87 +11 +11 1010.3 1008.4
06 12.07 С 5-6
{7}
н/о н/о +13.4 +10.7 84 +11 +11 1010.5 1008.6 +13.0 +14.6
07 12.07 С 4 н/о н/о +13.6 +11.1 85 +12 +12 1010.7 1008.7
08 12.07 СЗ 4 н/о н/о +13.5 +11.3 87 +12 +12 1010.6 1008.7
09 12.07 С 5-6
{7}
н/о н/о +14.0 +11.4 84 +12 +12 1010.6 1008.7
10 12.07 СЗ 5 н/о н/о +14.2 +10.8 80 +13 +13 1010.6 1008.7
11 12.07 С 5 н/о н/о +14.4 +10.5 77 +13 +13 1010.9 1009.0
12 12.07 СЗ 5-7
{7}
н/о н/о +14.1 +11.6 85 +12 +12 1010.6 1008.7
13 12.07 СЗ 6-7
{7}
н/о н/о +14.3 +10.6 78 +12 +12 1010.7 1008.8
14 12.07 СЗ 7 н/о н/о +13.9 +10.6 80 +12 +12 1010.9 1009.0
15 12.07 СЗ 5-8
{8}
н/о н/о +13.6 +11.7 88 +12 +12 1010.7 1008.8
16 12.07 СЗ 6 н/о н/о +13.9 +10.8 82 +12 +12 1010.5 1008.6
17 12.07 СЗ 6-8
{8}
н/о н/о +13.9 +11.3 84 +12 +12 1010.6 1008.7
18 12.07 СЗ 5-6
{7}
н/о н/о +14.2 +11.9 86 +12 +12 1010.5 1008.6 +13.3 +14.5
19 12.07 СЗ 5-7
{7}
н/о н/о +13.8 +12.4 91 +12 +12 1010.7 1008.7
20 12.07 СЗ 5 н/о н/о +14.1 +12.2 88 +12 +12 1010.9 1009.0
21 12.07 С 5-6
{7}
н/о н/о +14.5 +11.2 81 +13 +13 1011.1 1009.2
22 12.07 С 5-6
{6}
н/о н/о +14.2 +11.6 84 +12 +12 1011.2 1009.3
23 12.07 С 5 н/о н/о +14.1 +10.8 81 +12 +12 1011.1 1009.2
00 13.07 С 5-5
{6}
н/о н/о +13.9 +10.0 77 +12 +12 1011.0 1009.1
01 13.07 СЗ 4 н/о н/о +13.9 +10.6 80 +12 +12 1010.9 1009.0
02 13.07 СЗ 4-6
{6}
н/о н/о +13.8 +10.7 82 +12 +12 1010.9 1009.0
03 13.07 СЗ 4-5
{7}
н/о н/о +13.8 +11.2 84 +12 +12 1010.8 1008.9
04 13.07 С 6 н/о н/о +13.8 +9.8 77 +12 +12 1010.7 1008.8
05 13.07 С 5 н/о н/о +13.7 +10.0 78 +12 +12 1010.7 1008.8
06 13.07 С 5-7
{7}
н/о н/о +13.7 +9.2 74 +12 +12 1010.8 1008.9 +13.5 +14.5
07 13.07 С 6-7
{7}
н/о н/о +13.9 +9.0 72 +12 +12 1011.0 1009.0
08 13.07 С 6-7
{7}
н/о н/о +13.9 +10.4 79 +12 +12 1011.2 1009.3
09 13.07 С 5-6
{8}
н/о н/о +14.3 +9.6 73 +13 +13 1011.3 1009.4
10 13.07 СЗ 5 н/о н/о +14.2 +11.0 81 +12 +12 1011.4 1009.5
11 13.07 СЗ 5-7
{7}
н/о н/о +14.3 +10.4 77 +13 +13 1011.4 1009.5
12 13.07 СЗ 5-7
{7}
н/о н/о +14.5 +9.2 70 +13 +13 1011.4 1009.5
13 13.07 СЗ 5 н/о н/о +14.9 +9.2 69 +14 +14 1011.4 1009.5
14 13.07 СЗ 6 н/о н/о +15.2 +8.1 63 +14 +14 1011.4 1009.5
15 13.07 СЗ 4-5
{7}
н/о н/о +15.5 +8.8 64 +15 +15 1011.2 1009.3
16 13.07 СЗ 4 н/о н/о +16.2 +6.6 53 +16 +16 1011.0 1009.1
17 13.07 СЗ 4 н/о н/о +15.7 +8.8 64 +15 +15 1011.0 1009.1
18 13.07 СЗ 4-6
{6}
н/о н/о +15.7 +7.9 60 +15 +15 1011.4 1009.5 +13.7 +16.2
19 13.07 З 4-5
{6}
н/о н/о +15.1 +9.3 68 +14 +14 1011.5 1009.6
20 13.07 СЗ 5 н/о н/о +15.2 +11.1 77 +14 +14 1011.6 1009.7
21 13.07 С 4-5
{7}
н/о н/о +15.0 +13.4 90 +14 +14 1011.9 1010.0
22 13.07 С 4 н/о н/о +15.3 +10.9 75 +14 +14 1012.0 1010.1
23 13.07 С 5 н/о н/о +14.8 +9.8 72 +13 +13 1012.1 1010.2
00 14.07 С 6-7
{7}
н/о н/о +14.5 +10.7 78 +13 +13 1012.0 1010.1
01 14.07 С 7 н/о н/о +14.5 +11.6 83 +12 +12 1011.8 1009.9
02 14.07 С 7-9
{10}
н/о н/о +14.3 +12.1 87 +12 +12 1011.6 1009.7
03 14.07 С 8-10
{10}
н/о н/о +14.0 +12.2 89 +11 +11 1011.8 1009.9
04 14.07 С 9 н/о н/о +14.1 +11.8 86 +11 +11 1012.1 1010.2
05 14.07 С 9 н/о н/о +14.1 +12.2 88 +11 +11 1012.4 1010.5
06 14.07 С 6-7
{8}
н/о н/о +14.7 +11.8 83 +13 +13 1012.6 1010.7 +13.9 +15.8
07 14.07 С 6 н/о н/о +14.7 +11.9 83 +13 +13 1012.8 1010.9
08 14.07 С 5 н/о н/о +14.8 +12.5 86 +13 +13 1013.0 1011.1
09 14.07 С 5-6
{6}
н/о н/о +14.6 +13.4 93 +13 +13 1013.3 1011.4
10 14.07 С 6 н/о н/о +14.7 +13.2 91 +13 +13 1013.7 1011.7
11 14.07 СЗ 4 н/о н/о +14.4 +13.4 94 +13 +13 1013.6 1011.6
12 14.07 СЗ 4-5
{6}
н/о н/о +14.9 +11.9 82 +14 +14 1013.6 1011.7
13 14.07 СЗ 3-4
{5}
н/о н/о +14.6 +12.3 86 +14 +14 1013.7 1011.8
14 14.07 СЗ 2-3
{3}
н/о н/о +14.9 +11.8 82 +15 +15 1013.3 1011.4
15 14.07 СЗ 2-3
{3}
н/о н/о +15.4 +11.9 80 +15 +15 1013.3 1011.4
16 14.07 З 1 н/о н/о +15.7 +12.0 79 +16 +16 1013.1 1011.2
17 14.07 ЮЗ 3 н/о н/о +15.6 +11.9 79 +15 +15 1012.9 1011.0
18 14.07 З 3-4
{4}
н/о н/о +15.4 +12.7 84 +15 +15 1012.7 1010.8 +14.2 +16.0
19 14.07 ЮЗ 2-3
{4}
н/о н/о +15.3 +13.2 87 +15 +15 1012.8 1010.9
20 14.07 ЮЗ 3 н/о н/о +15.5 +12.9 84 +15 +15 1012.8 1010.9
21 14.07 Ю 2-2
{3}
н/о н/о +15.4 +13.6 89 +15 +15 1012.7 1010.8
22 14.07 ЮЗ 1-3
{3}
н/о н/о +15.3 +13.1 87 +16 +16 1012.5 1010.6
23 14.07 ЮЗ 1 н/о н/о +15.3 +12.9 86 +16 +16 1012.2 1010.3
00 15.07 Ю 3-4
{4}
н/о н/о +15.3 +11.4 78 +15 +15 1011.8 1009.9
01 15.07 Ю 6 н/о н/о +15.4 +11.9 80 +14 +14 1011.6 1009.7
02 15.07 Ю 4-5
{6}
н/о н/о +15.4 +12.1 81 +14 +14 1011.2 1009.3
03 15.07 Ю 4-4
{5}
н/о н/о +15.6 +11.5 77 +15 +15 1011.0 1009.1
04 15.07 Ю 2-3
{5}
н/о н/о +15.5 +11.5 77 +15 +15 1010.6 1008.7
05 15.07 Ю 3 н/о н/о +15.3 +12.2 82 +15 +15 1010.2 1008.3
06 15.07 В 5-5
{5}
н/о н/о +15.4 +12.2 81 +14 +14 1009.6 1007.7 +15.1 +15.6
07 15.07 ЮВ 5-6
{6}
н/о н/о +15.4 +13.0 86 +14 +14 1009.4 1007.5
08 15.07 Ю 5-6
{6}
н/о н/о +15.5 +13.9 90 +14 +14 1009.2 1007.3
09 15.07 Ю 4-5
{6}
н/о н/о +15.6 +14.6 94 +15 +15 1009.0 1007.1
10 15.07 ЮВ 5 н/о н/о +15.5 +14.8 96 +14 +14 1008.4 1006.5
11 15.07 Ю 4 н/о н/о +15.6 +14.6 94 +15 +15 1007.9 1006.0
12 15.07 ЮЗ 7-8
{8}
н/о н/о +15.3 +14.0 92 +13 +13 1007.6 1005.7
13 15.07 ЮЗ 5 н/о н/о +15.4 +14.1 92 +14 +14 1007.5 1005.6
14 15.07 ЮЗ 5-6
{6}
н/о н/о +15.6 +14.5 93 +14 +14 1007.1 1005.2
15 15.07 З 4-6
{6}
н/о н/о +14.2 +14.0 99 +13 +13 1007.0 1005.1
16 15.07 СЗ 3 н/о н/о +14.2 +13.9 98 +13 +13 1006.4 1004.5
17 15.07 СЗ 1 н/о н/о +13.7 +13.3 97 +14 +14 1005.8 1003.9
18 15.07 В 1-1
{2}
н/о н/о +13.4 +12.9 97 +13 +13 1005.2 1003.3 +13.3 +15.7
19 15.07 Ю 1 н/о н/о +13.5 +12.9 96 +14 +14 1004.8 1002.9
20 15.07 СЗ 5 н/о н/о +13.0 +12.7 98 +11 +11 1004.6 1002.7
21 15.07 С 9-10
{12}
н/о н/о +13.0 +12.0 94 +10 +10 1004.7 1002.8
22 15.07 С 9-11
{12}
н/о н/о +12.8 +11.6 92 +10 +10 1004.7 1002.8
23 15.07 СЗ 9-11
{12}
н/о н/о +12.8 +11.0 89 +10 +10 1004.5 1002.6
00 16.07 СЗ 10-12
{12}
н/о н/о +12.6 +10.9 89 +9 +9 1004.7 1002.8
01 16.07 СЗ 8-10
{12}
н/о н/о +12.5 +10.1 85 +9 +9 1004.8 1002.9
02 16.07 СЗ 5-8
{10}
н/о н/о +12.5 +10.0 85 +10 +10 1004.6 1002.7
03 16.07 СЗ 4-6
{9}
н/о н/о +12.2 +10.0 86 +10 +10 1004.6 1002.7
04 16.07 З 3 н/о н/о +12.1 +10.4 89 +10 +10 1004.3 1002.4
05 16.07 З 3-5
{7}
н/о н/о +11.9 +10.9 94 +10 +10 1004.1 1002.2
06 16.07 З 3-5
{5}
н/о н/о +12.0 +10.7 92 +10 +10 1004.1 1002.2 +11.8 +13.7
07 16.07 З 2-4
{5}
н/о н/о +11.9 +10.7 92 +11 +11 1004.1 1002.2
08 16.07 СЗ 2 н/о н/о +12.2 +10.8 91 +11 +11 1004.7 1002.7
09 16.07 З 1-3
{3}
н/о н/о +12.3 +10.7 90 +12 +12 1005.1 1003.2
10 16.07 З 1-2
{2}
н/о н/о +12.4 +10.7 89 +12 +12 1005.3 1003.4
11 16.07 СЗ 1 н/о н/о +12.5 +10.9 90 +12 +12 1005.7 1003.8
12 16.07 З 2-3
{3}
н/о н/о +12.6 +10.9 89 +12 +12 1005.9 1004.0
14 16.07 СЗ 2-4
{4}
н/о н/о +13.2 +9.1 76 +13 +13 1006.7 1004.8
15 16.07 С 3-4
{4}
н/о н/о +13.4 +10.3 81 +12 +12 1007.2 1005.3
16 16.07 С 3 н/о н/о +13.7 +10.1 79 +13 +13 1007.6 1005.7
17 16.07 С 1 н/о н/о +14.0 +9.8 76 +14 +14 1008.0 1006.0
18 16.07 штиль 0-1
{2}
н/о н/о +14.3 +9.5 73 +14 +14 1008.3 1006.4 +11.9 +14.7
19 16.07 штиль 0-2
{2}
н/о н/о +14.4 +9.9 74 +14 +14 1008.6 1006.7
20 16.07 штиль 0-1
{1}
н/о н/о +13.8 +10.0 78 +13 +13 1008.9 1007.0
21 16.07 С 1-1
{2}
н/о н/о +13.8 +10.1 78 +14 +14 1009.2 1007.3
22 16.07 штиль 0
{1}
н/о н/о +13.7 +10.2 79 +13 +13 1009.3 1007.4
23 16.07 СЗ 1-2
{2}
н/о н/о +13.8 +10.3 79 +14 +14 1009.6 1007.7
00 17.07 С 2-3
{3}
н/о н/о +13.9 +10.5 80 +13 +13 1009.8 1007.9
01 17.07 С 3 н/о н/о +13.9 +10.8 82 +13 +13 1009.8 1007.9
02 17.07 С 4 н/о н/о +13.9 +11.4 85 +12 +12 1009.7 1007.8
03 17.07 С 5-6
{7}
н/о н/о +14.1 +12.1 88 +12 +12 1009.9 1008.0
04 17.07 С 5 н/о н/о +14.1 +11.8 86 +12 +12 1009.9 1008.0
05 17.07 С 5 н/о н/о +14.1 +11.9 87 +12 +12 1009.9 1008.0
06 17.07 С 6-8
{8}
н/о н/о +14.2 +12.4 89 +12 +12 1010.1 1008.2 +13.6 +15.3
07 17.07 С 6-7
{8}
н/о н/о +14.2 +12.9 92 +12 +12 1010.1 1008.2
08 17.07 С 7-8
{8}
н/о н/о +14.4 +13.5 94 +12 +12 1010.2 1008.3
09 17.07 С 7-8
{8}
н/о н/о +14.6 +13.7 94 +12 +12 1010.5 1008.6
10 17.07 С 6 н/о н/о +15.1 +14.2 94 +13 +13 1010.8 1008.9
11 17.07 С 6 н/о н/о +15.5 +14.6 94 +14 +14 1010.9 1009.0
12 17.07 -7
{7}
н/о н/о +15.9 +14.3 90 1011.0 1009.1
13 17.07 С 4 н/о н/о +16.1 +14.6 91 +15 +15 1011.0 1009.1
14 17.07 СЗ 4 н/о н/о +14.9 +14.8 99 +14 +14 1011.0 1009.1
15 17.07 СЗ 6-7
{8}
н/о н/о +14.8 +14.5 98 +13 +13 1011.0 1009.1
16 17.07 СЗ 6 н/о н/о +15.1 +14.7 97 +13 +13 1010.9 1009.0
17 17.07 С 6 н/о н/о +15.5 +14.9 96 +14 +14 1010.9 1009.0
18 17.07 С 6-6
{6}
н/о н/о +16.2 +15.5 96 +15 +15 1011.3 1009.4 +14.1 +16.2
19 17.07 С 4 н/о н/о +16.1 +15.3 95 +15 +15 1011.6 1009.7
20 17.07 С 3 н/о н/о +16.2 +15.2 94 +16 +16 1011.5 1009.7
21 17.07 С 4-5
{5}
н/о н/о +15.9 +15.0 94 +15 +15 1011.5 1009.6
22 17.07 С 5-6
{6}
н/о н/о +15.9 +14.4 91 +15 +15 1011.6 1009.7
23 17.07 С 5 н/о н/о +15.7 +13.9 89 +14 +14 1011.8 1009.9
00 18.07 С 5-6
{6}
н/о н/о +15.5 +14.1 91 +14 +14 1011.8 1009.9
01 18.07 С 5 н/о н/о +15.3 +14.0 92 +14 +14 1011.8 1009.9
02 18.07 СЗ 6 н/о н/о +13.6 +13.6 100 +11 +11 1011.9 1010.0
03 18.07 С 6-8
{8}
н/о н/о +14.7 +14.6 99 +13 +13 1012.0 1010.1
04 18.07 С 7 н/о н/о +14.8 +14.2 96 +13 +13 1012.1 1010.2
05 18.07 С 5 н/о н/о +14.8 +14.2 96 +13 +13 1012.3 1010.4
06 18.07 С 6-6
{7}
н/о н/о +15.1 +13.4 90 +13 +13 1012.5 1010.6 +13.4 +16.3
07 18.07 С 5 н/о н/о +15.2 +13.2 88 +14 +14 1012.5 1010.6
08 18.07 С 5 н/о н/о +15.4 +13.7 90 +14 +14 1012.6 1010.7

 

Местоположение метеостанции Кокар Богскар (Финляндия): широта 59.51 долгота 20.36 высота над уровнем моря 4 м.

В архиве по умолчанию представлена погода в Кокар Богскар за последнюю неделю. Архивные данные за месяц целиком и за предыдущие месяцы, начиная с января 2011 года, Вы можете получить, выбрав интересующий диапазон дат из раскрывающегося списка и нажав кнопку "Ввод!".


*Определитесь, кто Вы:
робот инопланетянин человек

Внимание! Время в таблицах - всемирное. Для получения местного времени необходимо прибавить поправку, которая равна 1 ч.

Смотрите также архив погоды в соседних городах и на ближайших метеорологических станциях:

Погода в Свенска Хогарна (Швеция) (49 км)
Погода в Свенска Хогарна АМС (Швеция) (49 км)
Погода в Лемланд Нихамн (Финляндия) (55 км)
Погода в Содерарме (Швеция) (59 км)
Погода на Острове Уто (Финляндия) (64 км)
Погода в Логнес Харбор (Финляндия) (68 км)
Погода в Йомала аэропорту (Финляндия) (73 км)
Погода в Йомале (Финляндия) (77 км)
Погода в Кумлинге (Финляндия) (86 км)
Погода в Ставстане (Швеция) (97 км)

Пояснения к столбцам:

Ветер - указаны скорость ветра в м/с - средняя за 10 мин, порывы в срок и между сроками (в фигурных скобках) и направление, откуда дует ветер: С - северный, СВ - северо-восточный, В - восточный, ЮВ - юго-восточный, Ю - южный, ЮЗ - юго-западный, З - западный, СЗ - северо-западный.
Видимость - горизонтальная дальность видимости в метрах или километрах. При видимости от 1 до 10 км при отсутствии осадков обычно наблюдается дымка, при ухудшении видимости до 1 км и менее - туман. В сухую погоду видимость может ухудшаться дымом, пылью или мглою.
Явления - указаны атмосферные явления, наблюдавшиеся в срок или в последний час перед сроком; фигурными скобками обозначены явления, наблюдавшиеся между сроками (за 1-3 часа до срока); квадратными скобками обозначены град или гололедные отложения с указанием их диаметра в мм.
Облачность - указаны через наклонную черту общая и нижняя облачность в баллах и высота нижней границы облаков в метрах; квадратными скобками обозначены формы облаков: Ci - перистые, Cs - перисто-слоистые, Cc - перисто-кучевые, Ac - высококучевые, As - высокослоистые, Sc - слоисто-кучевые, Ns - слоисто-дождевые, Cu - кучевые, Cb - кучево-дождевые. Подробнее классификацию облаков см. в Атласе облаков (PDF).
T - Температура воздуха - температура, измеренная на высоте 2 м над землей.
Td - Температура точки росы - температура, при понижении до которой содержащийся в воздухе водяной пар достигнет насыщения.
f - Относительная влажность воздуха - влажноcть воздуха, измеренная на высоте 2 м над землей.
Te - Эффективная температура - температура, которую ощущает одетый по сезону человек в тени. Характеристика душности погоды. При расчете учитывается влияние влажности воздуха и скорости ветра на теплоощущения человека.
Tes - Эффективная температура на солнце - температура, которую ощущает человек, с поправкой на солнечный нагрев. Характеристика знойности погоды. Зависит от высоты солнца над горизонтом, облачности и скорости ветра. Ночью, в пасмурную погоду, а также при ветре 12 м/с и более поправка равна нулю.
P - Атмосферное давление - приведенное к уровню моря атмосферное давление.
Po - Атмосферное давление - измеренное на уровне метеостанции атмосферное давление.
Tmin - Минимальная температура - минимум температуры воздуха на высоте 2 м над землей.
Tmax - Максимальная температура - максимум температуры воздуха на высоте 2 м над землей.
R - Количество осадков - Количество выпавших осадков за период времени, мм. При наведении курсора мыши на число - период времени, за который выпало указанное количество осадков.
R24 - Количество осадков - Количество выпавших осадков за 24 часа, мм.
S - Снежный покров - Высота снежного покрова, см. При наведении курсора мыши на число - состояние снежного покрова и степень покрытия местности в баллах.